Probability
0 0 0 0 0 0 0 0 0 0 0 0 0 0 0 0 0 0 0 0 0 0 0 0 0 0 0 0 0 0 0 0 0 0 0 0 0 0
0 0 0 0 0 0 0 0 0 0 0 0 0 0 0 0 0 0 0 0 0 0 0 0 0 0 0 0 0 0 0 0 0 0 0 0 0 0
0 0 0 0 0 0 0 0 0 0 0 0 0 0 0 0 0 0 0 0 0 0 0 0 0 0 0 0 0 0 0 0 0 0 0 0 0 0
0 0 0 0 0 0 0 0 0 0 0 0 0 0 0 0 0 0 0 0 0 0 0 0 0 0 0 0 0 0 0 0 0 0 0 0 0 0
0 0 0 0 0 0 0 0 0 0 0 0 0 0 0 0 0 0 0 0 0 0 0 0 0 0 0 0 0 0 0 0 0 0 0 0 0 0
0 0 0 0 0 0 0 0 0 0 0 0 0 0 0 0 0 0 0 0 0 0 0 0 0 0 0 0 0 0 0 0 0 0 0 0 0 0
0 0 0 0 0 0 0 0 0 0 0 0 0 0 0 0 0 0 0 0 0 0 0 0 0 0 0 0 0 0 0 0 0 0 0 0 0 0
0 0 0 0 0 0 0 0 0 0 0 0 0 0 0 0 0 0 0 0 0 0 0 0 0 0 0 0 0 0 0 0 0 0 0 0 0 0
0 0 0 0 0 0 0 0 0 0 0 0 0 0 0 0 0 0 0 0 0 0 0 0 0 0 0 0 0 0 0 0 0 0 0 0 0 0
0 0 0 0 0 0 0 0 0 0 0 0 0 0 0 0 0 0 0 0 0 0 0 0 0 0 0 0 0 0 0 0 0 0 0 0 0 0
0 0 0 0 0 0 0 0 0 0 0 0 0 0 0 0 0 0 0 0 0 0 0 0 0 0 0 0 0 0 0 0 0 0 0 0 0 0
0 0 0 0 0 0 0 0 0 0 0 0 0 0 0 0 0 0 0 0 0 0 0 0 0 0 0 0 0 0 0 0 0 0 0 0 0 0
0 0 0 0 0 0 0 0 0 0 0 0 0 0 0 0 0 0 0 0 0 0 0 0 0 0 0 0 0 0 0 0 0 0 0 0 0 0
0 0 0 0 0 0 0 0 0 0 0 0 0 0 0 0 0 0 0 0 0 0 0 0 0 0 0 0 0 0 0 0 0 0 0 0 0 0
0 0 0 0 0 0 0 0 0 0 0 0 0 0 0 0 0 0 0 0 0 0 0 0 0 0 0 0 0 0 0 0 0 0 0 0 0 0
0 0 0 0 0 0 0 0 0 0 0 0 0 0 0 0 0 0 0 0 0 0 0 0 0 0 0 0 0 0 0 0 0 0 0 0 0 0
0 0 0 0 0 0 0 0 0 0 0 0 0 0 0 0 0 0 0 0 0 0 0 0 0 0 0 0 0 0 0 0 0 0 0 0 0 0
0 0 0 0 0 0 0 0 0 0 0 0 0 0 0 0 0 0 0 0 0 0 0 0 0 0 0 0 0 0 0 0 0 0 0 0 0 0
0 0 0 0 0 0 0 0 0 0 0 0 0 0 0 0 0 0 0 0 0 0 0 0 0 0 0 0 0 0 0 0 0 0 0 0 0 0
0 0 0 0 0 0 0 0 0 0 0 0 0 0 0 0 0 0 0 0 0 0 0 0 0 0 0 0 0 0 0 0 0 0 0 0 0 0
0 0 0 0 0 0 0 0 0 0 0 0 0 0 0 0 0 0 0 0 0 0 0 0 0 0 0 0 0 0 0 0 0 0 0 0 0 0
0 0 0 0 0 0 0 0 0 0 0 0 0 0 0 0 0 0 0 0 0 0 0 0 0 0 0 0 0 0 0 0 0 0 0 0 0 0
0 0 0 0 0 0 0 0 0 0 0 0 0 0 0 0 0 0 0 0 0 0 0 0 0 0 0 0 0 0 0 0 0 0 0 0 0 0
Wind_Speed
2 2 1 1 1 1 1 2 2 3 4 4 2 2 2 2 5 4 5 7 8 8 8 8 8 9 9 10 10 11 12 13 14 14 14 14 14 15
2 2 2 1 1 1 1 1 2 3 4 3 3 3 3 4 6 4 5 8 8 8 8 8 8 8 8 9 10 10 11 11 13 14 13 13 14 14
2 2 2 1 1 1 1 2 2 3 5 4 3 3 3 4 4 4 4 4 4 7 8 8 8 8 7 8 9 10 11 11 12 12 13 13 13 14
2 2 2 1 1 1 1 3 3 3 3 5 4 3 4 4 4 4 4 4 4 6 8 7 7 7 7 8 8 9 10 10 11 12 12 13 13 13
2 2 2 1 2 2 2 3 3 3 2 3 4 3 3 3 4 4 4 4 4 5 6 6 6 7 7 8 9 9 9 10 10 11 11 12 13 13
1 2 2 2 2 2 2 3 3 3 2 2 3 3 3 3 3 3 4 4 4 5 5 5 6 7 7 8 8 9 9 10 10 11 11 11 11 12
1 1 2 2 3 2 2 2 2 2 2 2 2 3 3 3 3 3 4 4 4 3 4 4 4 3 4 6 7 8 9 10 10 11 10 10 10 11
2 1 1 2 2 3 4 4 3 3 3 3 2 3 4 3 3 3 3 3 4 3 3 5 3 3 3 2 6 8 9 10 10 10 10 10 10 11
2 1 1 1 2 2 3 4 3 4 3 3 4 4 3 3 3 3 3 3 3 3 3 4 3 3 4 4 8 8 9 9 10 10 10 11 11 12
1 2 2 2 2 2 1 1 2 2 3 2 2 3 2 2 2 3 3 3 3 3 2 2 3 3 4 4 7 8 9 10 10 10 11 11 11 12
1 1 1 1 3 2 1 1 2 2 3 4 4 4 4 4 3 1 2 2 3 3 2 1 2 4 3 2 4 8 9 10 10 10 11 12 12 11
1 1 2 2 3 3 1 2 2 3 2 3 3 4 3 2 4 1 1 1 2 2 1 2 2 3 3 2 3 4 5 8 10 10 11 12 12 6
1 1 0 1 3 4 2 1 2 2 1 2 2 2 2 1 1 2 1 1 1 2 2 2 2 2 1 3 4 3 3 4 4 6 8 11 12 8
0 0 0 2 3 3 2 2 1 2 1 1 1 2 2 2 2 2 2 2 2 2 3 2 1 2 1 2 4 4 4 4 4 4 4 8 8 10
0 0 1 2 2 2 2 1 1 0 1 1 1 2 2 2 2 2 3 2 2 2 2 1 1 2 2 2 3 4 4 4 3 3 4 4 4 4
1 1 2 2 2 2 2 2 1 1 1 1 1 2 2 2 2 2 2 3 2 3 2 2 1 1 2 3 3 3 3 3 4 5 4 3 3 3
1 1 1 1 1 1 1 1 1 1 1 1 1 2 2 2 3 2 2 2 2 2 3 3 3 2 2 2 2 2 3 3 3 4 4 4 3 3
1 1 1 1 1 1 1 1 1 1 1 1 1 1 2 2 3 2 2 2 2 2 2 2 3 3 2 2 1 2 2 3 3 4 3 3 4 4
1 1 1 1 1 1 1 1 1 2 1 1 1 1 1 2 2 2 2 2 2 2 2 2 2 2 3 4 3 2 2 3 4 3 3 3 4 4
1 1 1 1 1 1 1 1 1 1 2 1 1 1 1 2 2 2 2 2 2 2 2 2 2 2 2 2 2 3 4 3 3 3 3 3 3 4
1 1 1 0 0 1 1 1 1 1 2 2 1 1 1 2 2 2 2 3 2 2 2 3 3 4 2 1 1 3 3 5 5 3 3 3 3 3
1 1 1 1 1 1 1 1 1 1 2 1 1 1 2 1 2 2 2 2 2 2 2 2 3 2 2 2 2 3 4 4 6 7 6 4 2 2
0 0 1 1 1 1 1 1 2 1 2 2 2 2 2 2 2 2 2 2 2 2 2 2 2 2 2 1 2 2 4 4 4 4 5 8 7 6
Wind_Direction
195 197 211 239 249 239 227 218 238 276 277 272 286 292 296 291 297 294 289 288 290 292 296 299 306 310 315 320 321 324 325 326 327 324 322 323 323 323
196 200 213 221 224 235 225 242 238 246 268 277 278 301 303 305 304 302 294 300 291 292 296 299 305 308 315 321 322 325 328 330 330 329 328 328 328 330
205 207 217 226 239 248 253 251 251 246 263 284 294 306 304 302 308 301 297 288 288 295 296 300 306 310 319 322 324 325 327 328 329 330 329 328 330 332
208 214 222 221 251 248 258 263 257 250 256 284 300 306 299 299 310 310 312 310 303 309 306 302 308 317 325 327 328 328 330 332 332 331 328 329 330 331
201 212 221 217 247 260 265 271 273 272 264 275 291 302 304 314 320 315 311 313 317 316 312 318 321 324 329 328 333 334 332 332 334 333 331 331 332 332
193 202 216 230 241 256 272 269 281 281 275 277 290 306 309 313 315 318 321 328 323 328 328 326 318 320 322 327 333 336 336 335 336 336 334 336 338 338
179 206 212 229 246 263 277 285 288 287 285 278 289 305 308 321 319 314 315 320 319 334 330 318 313 304 309 325 335 337 339 343 345 341 338 342 344 343
195 219 228 229 259 290 295 298 297 278 275 275 278 285 294 302 311 314 317 327 318 326 328 316 321 313 313 311 333 339 343 346 349 349 352 350 347 347
190 212 262 259 272 256 292 309 314 318 293 269 269 274 282 291 298 306 307 306 295 300 319 311 323 322 321 329 339 341 347 350 353 355 356 354 352 351
193 215 237 253 253 262 275 297 302 305 303 305 277 274 283 285 273 275 285 304 304 314 329 310 319 320 324 323 335 348 353 353 354 356 357 356 355 353
213 221 230 254 268 285 266 270 293 308 335 333 327 316 321 331 336 336 337 331 321 320 342 343 323 324 320 320 342 355 352 351 352 356 358 357 355 353
223 225 235 253 280 293 251 244 271 294 313 325 331 332 326 331 350 336 283 300 316 313 335 351 323 338 332 322 335 340 343 347 351 354 356 357 354 351
223 268 273 298 303 307 302 265 268 298 302 319 326 336 337 337 340 338 318 282 278 278 287 325 316 327 304 308 319 330 338 337 341 344 351 355 354 356
222 308 354 343 331 320 315 308 323 337 313 331 348 339 333 334 334 333 326 315 283 264 274 285 283 289 305 307 305 317 328 329 336 339 339 350 355 356
6 358 358 351 340 327 333 344 1 353 347 351 336 324 323 320 332 337 337 342 338 320 302 288 280 290 288 280 294 307 318 322 333 338 337 343 343 344
4 26 30 35 25 5 7 14 16 15 25 350 330 322 331 339 340 336 335 343 350 342 339 338 329 298 291 285 282 297 311 312 325 331 333 335 340 345
18 36 37 37 30 19 17 19 19 18 20 359 351 347 345 342 336 338 344 346 347 338 343 351 351 335 288 272 292 297 309 315 318 326 335 341 342 345
78 65 50 51 40 25 16 5 2 357 350 345 344 344 336 332 334 340 347 347 342 335 339 339 348 349 350 335 275 291 319 318 323 330 333 333 332 338
81 82 75 51 33 20 12 1 346 332 330 331 333 331 328 332 337 336 341 346 343 338 336 335 343 352 350 340 330 342 326 324 332 337 337 331 319 320
67 84 78 48 28 7 354 346 336 331 336 339 339 338 332 334 337 335 332 338 338 337 338 341 343 340 323 306 306 309 324 328 336 339 335 329 322 319
61 62 64 44 12 2 353 336 326 322 331 331 333 333 331 337 335 327 328 340 338 333 334 327 315 326 320 336 338 333 336 349 349 340 331 335 338 348
62 52 39 29 11 356 348 338 328 327 329 322 326 327 324 327 331 328 331 333 328 329 327 326 330 345 7 16 355 339 343 351 360 7 9 4 347 347
71 46 22 7 347 339 341 330 329 324 322 322 326 327 328 326 326 329 329 327 330 339 351 355 357 2 2 5 1 350 354 358 1 8 11 9 13 10